Weather History for KVNC - July, 2013

Change the Weather History Date:

Thursday, July 18, 2013

  Actual Average (KSRQ) Record (KSRQ)
Temperature  
Mean Temperature 76 °F 82 °F  
Max Temperature 82 °F 90 °F 97 °F (1989)
Min Temperature 71 °F 75 °F 66 °F (1948)
Degree Days  
Heating Degree Days 0 0  
Month to date heating degree days 0  
Since 1 June heating degree days 0  
Since 1 July heating degree days 0  
Cooling Degree Days 12 18  
Month to date cooling degree days 308  
Year to date cooling degree days 1531  
Since 1 June cooling degree days 780  
Growing Degree Days 26 (Base 50)    
Moisture  
Dew Point 73 °F    
Average Humidity 91    
Maximum Humidity 100    
Minimum Humidity 70    
Precipitation  
Precipitation 0.01 in 0.22 in 3.96 in (1935)
Month to date precipitation 4.66  
Year to date precipitation 25.87  
Sea Level Pressure  
Sea Level Pressure 30.10 in    
Wind  
Wind Speed 7 mph (ESE)    
Max Wind Speed 14 mph    
Max Gust Speed -    
Visibility 10 miles    
Events Rain , Thunderstorm    
T = Trace of Precipitation, MM = Missing Value Source: NWS Daily Summary

Daily Weather History Graph

Daily Weather History Graph

Search for Another Location

Airport or City:

Trip Planner

Search our weather history database for the weather conditions in past years. The results will help you decide how hot, cold, wet, or windy it might be!

Date:

Astronomy

Jul. 18, 2013 Rise Set
Actual Time 6:46 AM EDT 8:25 PM EDT
Civil Twilight 6:21 AM EDT 8:50 PM EDT
Nautical Twilight 5:50 AM EDT 9:21 PM EDT
Astronomical Twilight 5:17 AM EDT 9:53 PM EDT
Moon 4:23 PM EDT (7/18) 2:31 AM EDT (7/18)
Length of Visible Light 14h 29m
Length of Day
13h 38m
Waxing Gibbous, 77% of the Moon is Illuminated
Jul 18
Waxing Gibbous
Jul 22
Full
Jul 29
Last Quarter
Aug 6
New
Aug 14
First Quarter

Hourly Weather History & Observations

Time (EDT) Temp. Heat Index Dew Point Humidity Pressure Visibility Wind Dir Wind Speed Gust Speed Precip Events Conditions
12:15 AM 73.4 °F - 73.4 °F 100% 30.10 in 10.0 mi East 5.8 mph - N/A   Clear
12:35 AM 73.4 °F - 73.4 °F 100% 30.11 in 10.0 mi NE 6.9 mph - N/A   Clear
12:55 AM 73.4 °F - 71.6 °F 94% 30.11 in 10.0 mi East 5.8 mph - N/A   Clear
1:15 AM 73.4 °F - 73.4 °F 100% 30.11 in 10.0 mi East 5.8 mph - N/A   Clear
1:35 AM 73.4 °F - 73.4 °F 100% 30.10 in 10.0 mi ENE 5.8 mph - N/A   Clear
1:55 AM 73.4 °F - 71.6 °F 94% 30.09 in 10.0 mi ENE 6.9 mph - N/A   Clear
2:15 AM 73.4 °F - 71.6 °F 94% 30.09 in 10.0 mi ENE 8.1 mph - N/A   Clear
2:35 AM 73.4 °F - 71.6 °F 94% 30.09 in 10.0 mi ENE 6.9 mph - N/A   Clear
2:55 AM 73.4 °F - 71.6 °F 94% 30.09 in 10.0 mi ENE 6.9 mph - N/A   Clear
3:15 AM 71.6 °F - 71.6 °F 100% 30.09 in 10.0 mi ENE 6.9 mph - N/A   Clear
3:35 AM 71.6 °F - 71.6 °F 100% 30.08 in 10.0 mi ENE 9.2 mph - N/A   Clear
3:55 AM 71.6 °F - 71.6 °F 100% 30.08 in 10.0 mi ENE 6.9 mph - N/A   Clear
4:15 AM 71.6 °F - 71.6 °F 100% 30.08 in 10.0 mi ENE 6.9 mph - N/A   Scattered Clouds
4:35 AM 71.6 °F - 71.6 °F 100% 30.08 in 10.0 mi ENE 8.1 mph - N/A   Partly Cloudy
4:55 AM 71.6 °F - 71.6 °F 100% 30.08 in 10.0 mi ENE 6.9 mph - N/A   Clear
5:15 AM 71.6 °F - 71.6 °F 100% 30.08 in 10.0 mi ENE 5.8 mph - N/A   Clear
5:35 AM 71.6 °F - 71.6 °F 100% 30.08 in 10.0 mi ENE 8.1 mph - N/A   Clear
5:55 AM 73.4 °F - 71.6 °F 94% 30.08 in 10.0 mi East 6.9 mph - N/A   Partly Cloudy
6:15 AM 73.4 °F - 71.6 °F 94% 30.08 in 10.0 mi East 6.9 mph - N/A   Clear
6:35 AM 73.4 °F - 71.6 °F 94% 30.09 in 10.0 mi ENE 6.9 mph - N/A   Clear
6:55 AM 73.4 °F - 71.6 °F 94% 30.09 in 10.0 mi ENE 8.1 mph - N/A   Clear
7:15 AM 73.4 °F - 71.6 °F 94% 30.09 in 10.0 mi East 4.6 mph - N/A   Clear
7:35 AM 73.4 °F - 71.6 °F 94% 30.10 in 10.0 mi NE 6.9 mph - N/A   Clear
7:55 AM 73.4 °F - 71.6 °F 94% 30.11 in 10.0 mi East 8.1 mph - N/A   Clear
8:15 AM 73.4 °F - 73.4 °F 100% 30.11 in 10.0 mi East 6.9 mph - N/A   Partly Cloudy
8:35 AM 73.4 °F - 73.4 °F 100% 30.12 in 10.0 mi East 6.9 mph - N/A Thunderstorm Clear
8:55 AM 73.4 °F - 73.4 °F 100% 30.12 in 10.0 mi East 6.9 mph - N/A Thunderstorm Clear
9:15 AM 75.2 °F - 73.4 °F 94% 30.11 in 10.0 mi ENE 8.1 mph - N/A Thunderstorm Clear
9:35 AM 75.2 °F - 73.4 °F 94% 30.11 in 10.0 mi East 9.2 mph - N/A   Clear
9:55 AM 77.0 °F - 73.4 °F 89% 30.12 in 10.0 mi East 8.1 mph - N/A   Clear
10:15 AM 77.0 °F - 73.4 °F 89% 30.12 in 10.0 mi East 10.4 mph - N/A   Clear
10:35 AM 78.8 °F - 73.4 °F 83% 30.12 in 10.0 mi East 8.1 mph - N/A   Clear
10:55 AM 80.6 °F 86.2 °F 75.2 °F 84% 30.12 in 10.0 mi ESE 10.4 mph - N/A   Partly Cloudy
11:15 AM 80.6 °F 85.4 °F 73.4 °F 79% 30.12 in 10.0 mi ESE 8.1 mph - N/A   Scattered Clouds
11:35 AM 80.6 °F 85.4 °F 73.4 °F 79% 30.12 in 10.0 mi SE 8.1 mph - N/A Thunderstorm Scattered Clouds
11:55 AM 82.4 °F 88.2 °F 73.4 °F 74% 30.12 in 10.0 mi East 5.8 mph - N/A   Mostly Cloudy
12:15 PM 82.4 °F 88.2 °F 73.4 °F 74% 30.12 in 10.0 mi ESE 8.1 mph - N/A Thunderstorm Mostly Cloudy
12:35 PM 82.4 °F 88.2 °F 73.4 °F 74% 30.13 in 10.0 mi ESE 8.1 mph - N/A   Scattered Clouds
12:55 PM 82.4 °F 88.2 °F 73.4 °F 74% 30.12 in 10.0 mi SE 6.9 mph - N/A   Scattered Clouds
1:15 PM 82.4 °F 88.2 °F 73.4 °F 74% 30.11 in 10.0 mi SE 9.2 mph - N/A Thunderstorm Partly Cloudy
1:35 PM 82.4 °F 87.2 °F 71.6 °F 70% 30.10 in 10.0 mi SE 11.5 mph - N/A Thunderstorm Clear
1:55 PM 80.6 °F 85.4 °F 73.4 °F 79% 30.10 in 10.0 mi SSE 9.2 mph - N/A   Clear
2:15 PM 80.6 °F 85.4 °F 73.4 °F 79% 30.10 in 10.0 mi SE 5.8 mph - N/A   Clear
2:35 PM 80.6 °F 85.4 °F 73.4 °F 79% 30.10 in 10.0 mi SE 8.1 mph - N/A   Clear
2:55 PM 80.6 °F 85.4 °F 73.4 °F 79% 30.09 in 10.0 mi SE 8.1 mph - N/A Rain Light Rain
3:15 PM 78.8 °F - 75.2 °F 89% 30.09 in 10.0 mi South 11.5 mph - N/A Rain , Thunderstorm Light Rain
3:35 PM 77.0 °F - 75.2 °F 94% 30.08 in 10.0 mi SSE 10.4 mph - N/A Rain , Thunderstorm Light Rain
3:55 PM 77.0 °F - 75.2 °F 94% 30.08 in 10.0 mi South 10.4 mph - N/A Rain Light Rain
4:15 PM 77.0 °F - 75.2 °F 94% 30.08 in 7.0 mi South 11.5 mph - N/A Rain Light Rain
4:35 PM 77.0 °F - 73.4 °F 89% 30.08 in 9.0 mi SSE 13.8 mph - 0.01 in Rain Light Rain
4:55 PM 77.0 °F - 73.4 °F 89% 30.08 in 10.0 mi SSE 11.5 mph - 0.01 in   Mostly Cloudy
5:15 PM 77.0 °F - 73.4 °F 89% 30.08 in 10.0 mi SSE 9.2 mph - N/A   Mostly Cloudy
6:15 PM 77.0 °F - 71.6 °F 83% 30.06 in 10.0 mi SSE 6.9 mph - N/A   Clear
6:35 PM 77.0 °F - 71.6 °F 83% 30.06 in 10.0 mi SSE 6.9 mph - N/A   Clear
6:55 PM 77.0 °F - 71.6 °F 83% 30.06 in 10.0 mi SE 3.5 mph - N/A   Clear
7:15 PM 77.0 °F - 73.4 °F 89% 30.06 in 10.0 mi East 3.5 mph - N/A   Clear
7:35 PM 77.0 °F - 73.4 °F 89% 30.06 in 10.0 mi ESE 3.5 mph - N/A   Clear
7:55 PM 77.0 °F - 73.4 °F 89% 30.07 in 10.0 mi ESE 4.6 mph - N/A   Clear
8:15 PM 75.2 °F - 73.4 °F 94% 30.07 in 10.0 mi ESE 5.8 mph - N/A   Clear
8:35 PM 75.2 °F - 73.4 °F 94% 30.08 in 10.0 mi ESE 4.6 mph - N/A Rain Light Rain
8:55 PM 75.2 °F - 73.4 °F 94% 30.09 in 10.0 mi East 6.9 mph - N/A   Partly Cloudy
9:15 PM 75.2 °F - 73.4 °F 94% 30.09 in 10.0 mi ESE 6.9 mph - N/A   Scattered Clouds
9:35 PM 75.2 °F - 73.4 °F 94% 30.10 in 10.0 mi ESE 5.8 mph - N/A   Partly Cloudy
9:55 PM 75.2 °F - 73.4 °F 94% 30.10 in 10.0 mi SE 6.9 mph - N/A   Clear
10:15 PM 75.2 °F - 71.6 °F 89% 30.10 in 10.0 mi ESE 8.1 mph - N/A   Clear
10:35 PM 75.2 °F - 73.4 °F 94% 30.10 in 10.0 mi ESE 6.9 mph - N/A   Clear
10:55 PM 75.2 °F - 73.4 °F 94% 30.10 in 10.0 mi East 6.9 mph - N/A   Clear
11:15 PM 73.4 °F - 73.4 °F 100% 30.10 in 10.0 mi East 4.6 mph - N/A   Clear
11:35 PM 73.4 °F - 73.4 °F 100% 30.11 in 10.0 mi ESE 5.8 mph - N/A   Clear
11:55 PM 73.4 °F - 71.6 °F 94% 30.12 in 10.0 mi ESE 5.8 mph - N/A   Clear